Wind_Speed
14 13 13 12 12 13 14 15 16 17 18 18 19 20 20 20 20 19 19 17 17 17 18 18 18 18 18 18 18 18 19 19 19 19 19 19 19 19 19 19 18 18 18 19 19 19 19 19 19 19 19 19
15 15 14 14 14 14 15 15 17 18 19 19 19 20 20 20 19 19 19 18 18 18 19 19 19 19 19 19 19 19 19 19 19 19 19 19 18 18 18 18 18 18 17 18 18 18 19 19 19 19 19 19
17 16 16 16 16 15 15 16 17 19 20 20 20 20 19 18 18 19 19 19 19 19 19 19 19 19 19 19 19 19 18 18 18 18 17 17 16 15 15 15 15 14 14 14 15 15 16 16 17 17 17 18
19 18 17 17 17 17 16 16 18 20 20 20 20 20 18 18 18 19 19 20 20 20 20 20 19 19 19 19 19 18 17 16 15 14 13 12 11 11 10 10 10 10 10 10 10 10 11 12 12 13 13 14
20 20 19 19 18 18 17 17 18 20 21 20 20 19 19 18 18 19 20 20 20 20 20 19 19 18 17 16 15 14 13 12 11 10 10 9 9 9 8 8 8 9 9 9 9 9 9 9 10 11 11 11
22 22 21 20 19 19 19 18 19 20 21 21 21 20 19 19 19 20 20 20 20 19 19 18 17 15 14 12 11 10 9 9 9 8 9 9 9 9 9 10 10 11 11 11 11 11 11 11 12 12 12 12
22 22 22 21 20 20 19 19 20 21 22 22 21 20 20 20 20 20 20 20 19 19 18 16 14 12 11 10 10 9 9 9 9 9 10 10 11 11 12 12 13 13 14 14 14 15 15 15 15 15 15 15
23 23 22 21 21 21 19 20 21 22 22 22 21 21 20 20 20 20 19 19 18 17 15 14 13 12 11 11 10 10 10 10 11 11 12 12 13 14 14 15 15 16 16 17 17 17 18 18 18 18 18 18
23 23 23 22 22 21 20 21 21 22 22 22 21 21 20 20 19 19 19 17 16 15 14 13 13 13 12 12 12 12 12 13 13 14 14 15 15 16 16 17 17 18 18 19 19 19 20 20 20 20 20 21
25 24 23 22 22 21 21 21 21 22 23 22 21 21 20 20 19 19 18 16 15 15 14 14 14 14 14 14 14 15 15 15 15 16 16 16 17 17 18 19 19 19 20 20 21 21 21 22 22 22 22 22
26 25 24 23 23 23 23 22 21 22 23 23 21 20 19 19 19 18 17 16 16 16 16 16 16 16 16 16 17 17 17 17 17 17 18 18 18 19 19 20 20 21 21 22 22 22 23 23 23 23 23 24
26 26 25 25 24 24 24 23 22 23 24 22 20 19 19 19 18 18 17 17 17 17 17 17 18 18 18 18 18 18 18 18 18 19 19 19 19 20 20 21 21 21 22 22 23 23 23 23 24 24 24 25
27 26 26 25 24 24 24 23 24 24 23 21 20 20 20 19 19 19 19 18 18 18 19 19 19 19 19 19 20 20 19 20 20 20 20 20 20 21 21 21 22 22 22 22 22 23 23 23 24 24 24 25
27 27 26 25 25 25 25 25 25 24 22 21 20 20 20 20 20 20 20 20 20 20 20 21 21 21 21 20 20 20 20 21 21 21 21 21 21 21 21 21 22 22 22 22 22 22 22 23 23 24 24 24
28 27 27 26 26 27 26 26 26 24 23 22 21 21 21 21 21 21 21 21 21 21 21 22 22 22 22 21 21 22 22 21 21 21 22 22 22 22 22 21 22 22 22 22 22 22 22 23 23 23 23 24
29 28 28 28 28 28 27 27 26 24 23 22 22 22 22 22 22 22 22 22 22 22 22 23 23 23 23 22 22 23 23 22 22 22 22 22 22 22 22 22 22 22 22 22 22 22 23 23 23 23 24 24
31 30 30 30 29 28 28 27 25 24 23 23 23 22 22 23 23 23 23 23 23 23 24 23 23 23 24 24 23 23 23 23 23 23 23 23 23 23 23 23 22 23 23 23 23 23 24 24 24 24 24 24
32 31 31 31 30 29 28 27 25 24 24 24 24 23 23 23 23 24 24 24 24 24 24 24 24 24 25 25 24 24 24 24 23 23 24 24 24 23 23 23 23 24 24 24 25 25 25 25 25 25 25 25
32 31 32 31 30 29 28 27 26 25 25 25 25 24 24 24 24 25 25 25 25 25 25 25 25 25 26 25 25 24 24 24 24 24 24 24 24 24 24 25 25 25 25 26 26 26 27 27 27 27 27 27
33 33 33 32 30 29 28 27 26 26 26 26 26 25 24 24 25 25 26 26 26 26 26 26 26 26 27 26 25 25 25 25 25 25 25 25 25 25 26 26 27 27 27 27 28 28 28 28 29 29 29 29
34 34 33 32 31 30 29 28 28 27 28 27 27 26 25 25 26 26 26 27 27 27 27 27 27 27 27 26 26 25 25 26 26 26 26 26 26 27 27 28 28 28 29 29 30 30 30 30 31 31 31 31
34 34 33 33 32 32 31 30 29 29 29 28 26 26 25 26 27 27 28 28 28 28 28 28 28 27 27 27 26 26 26 26 27 26 27 27 27 28 28 29 29 30 30 31 31 32 32 32 32 33 33 33
35 35 35 34 34 33 32 31 29 29 28 26 26 26 26 27 28 28 29 30 30 30 29 29 28 27 27 27 27 27 27 27 28 28 28 28 29 29 29 30 30 31 31 32 33 33 33 33 34 34 34 34
35 36 35 34 34 34 32 30 29 28 27 27 27 27 27 29 29 30 31 31 31 31 30 29 28 28 28 28 28 28 28 28 29 30 29 29 29 30 30 31 31 32 32 33 33 33 34 34 35 35 35 35
34 34 34 33 33 32 31 30 30 30 30 29 29 29 30 31 31 32 33 33 33 32 30 29 28 28 28 28 28 29 29 30 31 31 30 30 30 31 32 32 33 33 33 33 33 34 35 35 35 35 36 36
33 32 32 33 32 32 32 33 33 33 32 32 32 33 34 34 34 35 35 34 33 31 30 28 28 28 28 29 29 30 31 31 32 31 31 31 32 32 33 33 34 33 33 34 34 35 36 36 36 36 36 36
32 32 32 33 33 33 35 36 36 35 35 35 36 36 36 36 36 35 35 34 32 31 30 29 29 29 30 30 31 31 32 32 32 32 32 32 32 33 34 34 34 34 34 35 35 36 37 36 36 37 36 36
32 32 34 35 35 36 37 38 38 38 38 38 37 38 37 36 35 34 34 33 32 31 30 30 30 30 31 32 32 33 33 33 33 33 33 33 33 34 35 34 34 34 35 36 36 37 37 37 37 38 37 37
32 33 35 36 37 38 38 39 39 39 39 37 38 37 36 34 34 34 34 33 33 33 32 32 32 33 34 34 34 34 34 34 34 34 35 35 35 35 35 35 36 36 37 37 37 38 38 38 39 39 38 38
32 34 36 37 37 38 38 39 39 38 37 37 38 37 36 36 37 37 37 37 36 36 36 36 36 36 37 36 37 37 36 36 36 36 36 36 36 36 36 37 38 38 38 38 39 39 39 39 40 41 41 41
32 34 35 36 37 38 38 39 38 37 37 38 39 39 39 39 40 40 40 40 40 39 39 39 39 39 39 39 40 40 40 40 39 38 38 39 40 39 39 40 41 40 39 40 40 39 40 41 41 42 44 43
Wind_Direction
255 257 257 256 254 252 253 257 261 263 264 265 267 269 271 272 272 272 272 272 272 274 275 276 276 276 276 275 274 273 273 273 272 272 272 271 272 271 271 270 269 268 268 268 267 267 267 266 265 264 262 261
259 260 259 258 257 254 254 257 260 261 262 263 265 266 268 270 271 272 274 275 275 275 276 277 277 276 276 275 274 274 273 272 272 271 271 270 270 270 270 270 270 270 269 269 269 269 269 269 268 268 267 267
263 262 260 259 258 257 255 256 259 260 261 263 263 263 264 267 270 272 275 276 276 276 276 276 275 275 275 274 273 273 271 271 270 270 270 270 270 269 269 270 271 271 271 270 271 271 271 272 272 272 272 272
265 264 261 260 260 259 256 255 257 260 262 262 262 262 263 266 270 272 274 276 276 276 275 274 273 273 272 272 271 270 269 268 267 267 268 269 270 271 272 273 275 275 275 275 274 274 275 276 277 278 278 278
262 262 262 263 262 260 257 256 256 259 262 261 261 262 264 267 269 271 272 273 274 274 273 273 272 271 269 267 266 264 262 261 262 263 265 268 271 274 276 279 282 283 283 283 282 281 280 280 281 282 283 282
260 259 259 260 261 258 256 255 255 257 259 259 261 263 265 267 268 269 270 270 270 270 270 270 269 266 262 258 256 255 254 256 258 262 266 271 275 278 281 283 285 286 287 287 287 286 285 284 283 283 283 283
260 258 256 256 255 254 253 253 253 254 255 257 260 263 265 266 267 267 266 266 266 266 265 263 259 256 252 249 249 251 254 258 262 266 271 275 279 282 284 285 286 287 287 288 288 287 287 286 285 284 284 283
258 256 254 253 251 250 249 249 250 252 254 256 259 262 265 266 266 264 263 263 262 258 255 250 248 248 248 249 251 255 259 263 268 271 274 277 280 281 283 284 285 285 286 287 287 287 287 286 285 285 284 284
255 253 251 250 249 248 247 247 249 252 254 256 259 262 264 265 262 261 261 258 253 247 244 243 244 247 250 254 256 260 264 267 270 273 275 277 279 280 282 283 283 284 285 285 286 286 286 286 285 284 284 284
257 255 252 251 249 248 246 247 249 251 254 256 258 261 261 260 259 258 255 250 246 243 243 243 246 249 253 258 261 264 267 269 272 274 275 277 278 279 281 282 283 284 284 285 285 285 285 285 285 284 284 284
258 255 252 250 249 248 247 247 249 251 255 257 259 259 258 256 256 254 250 246 244 244 245 246 249 253 257 261 264 267 269 271 272 274 275 277 278 280 281 282 283 284 284 285 285 285 285 285 285 285 284 284
255 253 250 249 248 248 247 247 249 252 255 257 258 257 256 255 254 251 248 246 246 247 249 251 254 256 260 263 266 269 271 273 274 276 278 279 280 281 282 282 283 284 284 284 285 285 285 285 285 285 285 285
254 252 251 249 249 248 248 249 250 252 254 255 254 252 253 253 251 248 248 248 249 250 253 256 258 261 263 265 268 270 272 274 276 278 280 280 281 281 282 282 283 283 283 284 284 284 284 285 285 285 285 284
252 252 251 250 250 250 250 250 251 252 253 251 249 249 250 250 249 249 249 250 252 254 256 260 262 264 266 268 270 272 274 276 277 279 280 280 280 281 281 281 282 282 283 283 283 283 283 284 284 284 284 284
252 251 250 249 249 249 250 250 250 250 248 246 245 246 248 249 250 250 251 252 254 257 259 262 264 267 268 270 272 273 275 276 277 278 278 279 279 280 280 280 281 281 282 282 282 283 283 283 284 284 284 284
251 250 249 248 248 249 249 249 248 247 244 243 244 245 248 250 251 252 253 254 256 258 261 263 265 267 268 270 271 273 274 275 276 277 277 278 278 279 279 280 280 281 282 282 282 283 283 284 284 284 284 285
250 248 247 247 248 249 249 249 247 245 243 242 244 246 248 250 252 254 255 256 258 259 261 263 264 266 268 269 270 271 273 274 275 276 277 277 278 278 279 280 280 281 281 282 282 283 283 284 284 285 285 286
248 247 247 248 249 249 248 247 246 243 242 243 245 247 249 251 253 255 256 258 260 261 262 263 265 267 268 269 270 271 272 274 275 276 277 277 278 279 279 279 280 280 281 281 282 283 284 284 285 286 286 287
248 248 248 249 248 246 245 244 243 241 241 243 246 248 249 251 253 255 257 259 260 261 262 264 265 267 268 269 270 271 272 274 275 275 276 277 278 278 279 279 279 280 280 281 282 283 283 284 285 285 286 286
247 247 248 249 247 243 242 242 240 240 242 244 246 248 250 252 254 255 257 258 259 260 262 263 265 266 267 268 269 269 271 272 273 274 275 276 277 278 279 279 280 280 281 281 282 282 283 283 284 284 285 285
246 247 248 248 245 242 241 239 238 239 241 244 246 249 251 253 255 255 256 257 258 259 260 262 263 264 266 267 267 268 269 271 272 274 275 276 277 278 278 279 280 281 281 281 281 282 282 282 282 283 283 283
245 245 246 245 243 241 240 238 238 239 242 245 249 251 253 254 254 255 255 256 257 258 260 261 262 264 265 266 267 268 269 271 272 274 275 275 276 277 278 279 280 280 280 281 281 281 281 281 282 282 282 282
243 244 244 243 241 240 240 239 240 241 244 248 251 252 252 253 253 253 254 255 257 258 260 262 263 264 265 265 266 267 268 270 272 273 273 275 276 278 279 279 280 280 281 281 281 281 281 281 281 281 281 281
244 245 245 244 242 242 242 242 243 243 245 246 248 249 250 251 251 252 254 255 257 258 260 262 263 264 264 265 265 267 268 269 270 271 273 276 277 278 278 279 279 280 280 281 281 281 281 281 281 280 280 280
249 249 249 248 246 245 244 244 243 242 242 243 244 245 246 247 249 251 252 254 257 259 261 263 264 263 264 264 264 265 266 267 269 272 275 276 277 277 278 278 278 278 280 281 281 281 281 281 281 281 280 280
251 251 251 251 249 247 245 244 243 242 241 242 242 243 245 247 249 251 253 256 259 261 263 264 263 262 262 261 262 263 265 267 271 273 274 275 275 276 276 276 276 278 280 280 280 280 281 281 282 282 281 282
253 252 252 251 250 248 246 244 244 243 242 242 244 245 247 249 250 253 256 259 262 263 263 262 261 260 260 260 261 263 265 267 270 272 273 273 274 274 274 275 277 279 279 278 278 279 280 281 282 282 282 283
254 253 251 251 250 248 247 246 245 245 245 246 248 249 250 252 254 257 259 261 262 263 262 261 260 259 259 259 261 262 264 267 269 270 271 271 272 273 274 276 277 277 275 276 277 279 279 280 280 281 281 281
254 252 252 251 251 251 250 250 249 250 251 252 252 253 253 255 256 257 258 258 259 258 258 258 258 258 259 260 261 262 264 265 266 267 269 270 271 272 274 274 274 273 274 275 276 277 278 279 279 280 280 279
253 253 253 253 254 255 256 256 256 257 256 255 254 253 252 252 253 253 254 254 255 256 256 257 258 258 260 261 262 263 263 264 265 266 268 270 270 270 271 271 270 271 273 274 274 275 277 278 278 278 278 278
254 254 255 257 258 260 260 261 262 261 259 257 255 253 252 252 252 254 255 256 257 257 258 258 259 260 261 261 262 263 264 264 265 266 267 268 269 269 269 269 269 271 271 271 272 274 275 275 275 276 276 277
Height
3133 3133 3133 3134 3134 3135 3135 3135 3135 3134 3134 3134 3134 3134 3134 3134 3135 3135 3135 3135 3136 3136 3136 3136 3136 3136 3137 3137 3137 3137 3137 3137 3137 3137 3137 3137 3137 3137 3137 3137 3137 3137 3137 3137 3138 3138 3138 3138 3139 3139 3139 3140
3131 3132 3132 3132 3133 3133 3133 3133 3133 3133 3133 3133 3133 3133 3133 3133 3133 3133 3133 3133 3134 3134 3134 3134 3134 3134 3134 3135 3135 3135 3135 3135 3135 3135 3135 3135 3135 3135 3135 3135 3135 3135 3136 3136 3136 3136 3136 3136 3137 3137 3137 3138
3129 3130 3130 3131 3131 3131 3131 3131 3131 3131 3131 3131 3131 3131 3131 3131 3131 3131 3131 3131 3132 3132 3132 3132 3132 3132 3132 3133 3133 3133 3133 3133 3133 3133 3133 3133 3133 3133 3134 3134 3134 3134 3134 3135 3135 3135 3135 3135 3135 3135 3136 3136
3127 3128 3128 3129 3129 3129 3129 3129 3129 3128 3128 3128 3129 3129 3129 3129 3130 3130 3129 3129 3130 3130 3130 3130 3130 3130 3131 3131 3131 3131 3131 3131 3131 3131 3131 3132 3132 3132 3132 3132 3133 3133 3133 3133 3134 3134 3134 3134 3134 3134 3134 3134
3125 3126 3126 3126 3126 3127 3127 3127 3126 3126 3126 3126 3126 3127 3127 3127 3128 3128 3128 3128 3128 3128 3128 3128 3128 3128 3129 3129 3129 3129 3130 3130 3130 3130 3130 3131 3131 3131 3131 3132 3132 3132 3132 3132 3133 3133 3133 3133 3133 3133 3133 3133
3123 3124 3124 3124 3124 3124 3124 3124 3124 3124 3124 3124 3124 3124 3125 3125 3125 3126 3126 3126 3126 3126 3126 3126 3126 3126 3127 3127 3128 3128 3129 3129 3129 3129 3130 3130 3130 3130 3130 3131 3131 3131 3131 3131 3131 3132 3132 3132 3132 3132 3132 3132
3121 3121 3122 3122 3122 3122 3122 3122 3122 3122 3122 3122 3122 3122 3123 3123 3123 3123 3123 3124 3124 3124 3124 3124 3124 3125 3125 3126 3126 3127 3127 3128 3128 3128 3128 3129 3129 3129 3129 3129 3130 3130 3130 3130 3130 3130 3130 3131 3131 3131 3131 3131
3118 3119 3119 3119 3119 3119 3119 3119 3119 3119 3119 3119 3120 3120 3120 3120 3121 3121 3121 3122 3122 3122 3122 3123 3123 3123 3124 3125 3125 3126 3126 3126 3126 3127 3127 3127 3127 3127 3127 3128 3128 3128 3128 3128 3128 3128 3128 3129 3129 3129 3129 3129
3116 3116 3116 3116 3116 3117 3117 3117 3117 3117 3117 3117 3117 3118 3118 3118 3119 3119 3119 3120 3120 3120 3121 3121 3121 3122 3122 3123 3123 3124 3124 3124 3125 3125 3125 3125 3125 3125 3125 3126 3126 3126 3126 3126 3126 3126 3126 3126 3127 3127 3127 3127
3112 3113 3113 3113 3114 3114 3114 3114 3114 3114 3114 3114 3115 3115 3116 3116 3117 3117 3117 3118 3118 3118 3119 3119 3120 3120 3120 3121 3121 3122 3122 3122 3122 3123 3123 3123 3123 3123 3123 3123 3123 3124 3124 3124 3124 3124 3124 3124 3124 3124 3124 3125
3109 3110 3110 3110 3111 3111 3112 3112 3112 3112 3112 3112 3112 3113 3113 3114 3114 3115 3115 3115 3116 3116 3117 3117 3118 3118 3118 3118 3119 3119 3119 3120 3120 3120 3120 3120 3121 3121 3121 3121 3121 3121 3121 3121 3121 3121 3121 3121 3121 3122 3122 3122
3106 3107 3107 3108 3108 3109 3109 3110 3110 3109 3109 3109 3110 3110 3111 3111 3112 3112 3113 3113 3114 3114 3114 3115 3115 3116 3116 3116 3116 3116 3117 3117 3117 3117 3118 3118 3118 3118 3118 3118 3118 3118 3118 3118 3118 3118 3118 3119 3119 3119 3119 3119
3103 3104 3104 3105 3106 3106 3106 3107 3107 3107 3107 3107 3107 3108 3108 3109 3109 3110 3110 3111 3111 3112 3112 3112 3113 3113 3114 3114 3114 3114 3114 3114 3114 3114 3115 3115 3115 3115 3115 3115 3115 3115 3116 3116 3116 3116 3116 3116 3116 3116 3116 3116
3101 3101 3102 3102 3103 3103 3104 3104 3104 3104 3104 3105 3105 3105 3106 3106 3107 3107 3108 3108 3109 3109 3109 3110 3110 3110 3111 3111 3111 3111 3111 3111 3112 3112 3112 3112 3112 3112 3112 3112 3112 3112 3113 3113 3113 3113 3113 3113 3113 3113 3113 3113
3098 3098 3099 3100 3100 3100 3101 3101 3101 3101 3102 3102 3102 3103 3103 3104 3104 3105 3105 3106 3106 3107 3107 3107 3107 3107 3108 3108 3108 3108 3109 3109 3109 3109 3109 3109 3109 3109 3109 3110 3110 3110 3110 3110 3110 3110 3110 3111 3111 3111 3111 3111
3095 3096 3096 3096 3096 3097 3097 3097 3098 3098 3099 3099 3100 3100 3101 3101 3102 3102 3103 3103 3104 3104 3104 3104 3104 3105 3105 3105 3106 3106 3106 3106 3106 3106 3106 3106 3106 3106 3106 3107 3107 3107 3107 3107 3107 3107 3107 3108 3108 3108 3108 3108
3092 3092 3093 3093 3093 3093 3093 3094 3094 3095 3096 3096 3097 3097 3098 3099 3099 3099 3100 3100 3101 3101 3101 3102 3102 3102 3102 3102 3103 3103 3103 3103 3103 3103 3103 3104 3103 3104 3104 3104 3104 3104 3104 3104 3104 3104 3104 3104 3105 3105 3105 3105
3088 3089 3089 3089 3090 3090 3090 3091 3091 3092 3093 3093 3093 3094 3095 3096 3096 3097 3097 3097 3098 3098 3098 3099 3099 3099 3099 3099 3100 3100 3100 3100 3100 3101 3101 3101 3101 3101 3101 3101 3101 3101 3101 3101 3101 3101 3101 3101 3101 3101 3102 3102
3085 3085 3086 3086 3086 3087 3087 3087 3088 3089 3089 3090 3090 3091 3092 3093 3093 3094 3094 3094 3095 3095 3095 3096 3096 3096 3095 3096 3097 3097 3097 3097 3097 3098 3098 3098 3098 3098 3098 3098 3098 3098 3098 3098 3098 3098 3098 3098 3098 3098 3098 3098
3081 3081 3081 3082 3083 3083 3084 3084 3085 3086 3086 3087 3087 3088 3089 3090 3090 3091 3091 3091 3091 3092 3092 3092 3092 3092 3092 3093 3093 3094 3094 3094 3094 3095 3095 3095 3095 3095 3095 3095 3095 3095 3095 3095 3095 3095 3095 3095 3095 3095 3095 3095
3077 3077 3078 3078 3079 3079 3080 3080 3081 3082 3082 3083 3083 3084 3085 3086 3087 3087 3088 3088 3088 3088 3089 3089 3089 3089 3089 3090 3090 3091 3091 3091 3091 3091 3092 3092 3092 3092 3092 3092 3092 3092 3092 3092 3092 3092 3092 3092 3092 3092 3092 3092
3073 3073 3074 3074 3074 3075 3076 3077 3078 3079 3079 3080 3081 3081 3082 3083 3083 3084 3084 3085 3085 3085 3085 3086 3086 3086 3086 3087 3087 3087 3088 3088 3088 3088 3088 3088 3089 3089 3089 3089 3089 3089 3089 3089 3088 3088 3088 3088 3088 3088 3088 3088
3068 3069 3069 3069 3070 3071 3072 3074 3075 3076 3077 3078 3078 3079 3079 3079 3080 3080 3081 3081 3081 3081 3082 3082 3083 3083 3083 3083 3084 3084 3084 3085 3085 3085 3085 3085 3085 3085 3085 3085 3085 3085 3085 3085 3085 3085 3084 3085 3084 3084 3084 3085
3064 3064 3065 3066 3067 3068 3069 3071 3072 3073 3074 3075 3075 3075 3075 3075 3076 3076 3077 3077 3077 3078 3078 3079 3080 3080 3080 3080 3080 3081 3081 3081 3081 3081 3081 3082 3082 3082 3082 3082 3082 3081 3081 3081 3081 3081 3081 3081 3080 3080 3080 3080
3060 3061 3062 3063 3064 3065 3067 3068 3068 3069 3070 3071 3071 3071 3071 3071 3071 3072 3072 3072 3073 3074 3075 3076 3076 3076 3076 3076 3077 3077 3077 3077 3077 3077 3078 3078 3078 3078 3078 3078 3078 3078 3078 3077 3077 3077 3077 3076 3076 3076 3076 3076
3057 3058 3059 3060 3061 3062 3063 3063 3063 3064 3065 3066 3066 3066 3066 3066 3067 3067 3068 3068 3069 3071 3071 3072 3072 3072 3072 3072 3072 3073 3073 3073 3073 3074 3074 3074 3074 3074 3074 3074 3074 3074 3074 3073 3073 3073 3072 3072 3072 3072 3072 3072
3054 3055 3056 3056 3057 3058 3058 3057 3058 3059 3060 3060 3061 3061 3062 3062 3063 3063 3064 3065 3066 3067 3067 3068 3068 3068 3068 3068 3068 3068 3068 3069 3069 3070 3070 3070 3070 3070 3069 3069 3070 3070 3070 3069 3069 3069 3068 3068 3068 3067 3068 3068
3051 3051 3051 3051 3052 3052 3052 3052 3053 3054 3054 3056 3056 3057 3058 3059 3060 3061 3061 3062 3062 3062 3063 3063 3063 3063 3063 3063 3064 3064 3064 3065 3065 3065 3065 3066 3066 3065 3065 3065 3065 3065 3065 3064 3065 3064 3063 3064 3063 3063 3064 3064
3047 3047 3047 3047 3047 3047 3047 3048 3049 3049 3051 3053 3053 3054 3056 3057 3057 3057 3057 3057 3057 3057 3058 3058 3058 3059 3059 3059 3059 3059 3060 3060 3061 3061 3061 3061 3061 3061 3061 3061 3060 3059 3060 3060 3060 3059 3059 3059 3058 3058 3059 3058
3042 3042 3042 3042 3042 3043 3043 3044 3045 3046 3048 3049 3050 3051 3052 3052 3051 3052 3052 3052 3052 3052 3053 3053 3053 3053 3054 3054 3054 3055 3055 3055 3056 3056 3056 3056 3056 3056 3056 3055 3054 3055 3056 3055 3055 3055 3055 3054 3053 3053 3053 3053
3037 3037 3037 3038 3038 3038 3039 3039 3041 3043 3044 3044 3045 3045 3046 3046 3046 3047 3047 3047 3047 3047 3048 3048 3048 3048 3049 3049 3049 3049 3049 3050 3051 3051 3051 3050 3050 3051 3051 3050 3049 3051 3051 3050 3050 3050 3050 3049 3048 3047 3047 3047